Dayton, OR

10:31 AM PST on February 10, 2016 (GMT -0800)
McMinnville Municipal

Weather History for KMMV - January, 2014

Change the Weather History Date:

Saturday, January 11, 2014

  Actual Average Record
Temperature  
Mean Temperature 51 °F 40 °F  
Max Temperature 56 °F 47 °F 67 °F (1958)
Min Temperature 45 °F 34 °F 5 °F (1930)
Degree Days  
Heating Degree Days 14 25  
Month to date heating degree days 252 276  
Since 1 July heating degree days 2292 2281  
Cooling Degree Days 0 0  
Month to date cooling degree days 0 0  
Year to date cooling degree days 0 0  
Moisture  
Dew Point 45 °F    
Average Humidity 86    
Maximum Humidity 100    
Minimum Humidity 72    
Precipitation  
Precipitation 0.90 in 0.23 in 2.70 in (1972)
Month to date precipitation 1.73 2.43  
Year to date precipitation 1.73 2.43  
Sea Level Pressure  
Sea Level Pressure 29.74 in    
Wind  
Wind Speed 19 mph (SW)    
Max Wind Speed 32 mph    
Max Gust Speed 46 mph    
Visibility 8 miles    
Events Rain    
T = Trace of Precipitation, MM = Missing Value Source: NWS Daily Summary

Daily Weather History Graph

Daily Weather History Graph

Search for Another Location

Airport or City:

Trip Planner

Search our weather history database for the weather conditions in past years. The results will help you decide how hot, cold, wet, or windy it might be!

Date:

Astronomy

Jan. 11, 2014 Rise Set
Actual Time 7:49 AM PST 4:51 PM PST
Civil Twilight 7:16 AM PST 5:25 PM PST
Nautical Twilight 6:39 AM PST 6:01 PM PST
Astronomical Twilight 6:04 AM PST 6:37 PM PST
Moon 1:41 PM PST (1/11) 3:57 AM PST (1/11)
Length of Visible Light 10h 08m
Length of Day
9h 02m
Waxing Gibbous, 84% of the Moon is Illuminated
Jan 11
Waxing Gibbous
Jan 15
Full
Jan 23
Last Quarter
Jan 30
New
Feb 6
First Quarter

Hourly Weather History & Observations

Time (PST) Temp. Windchill Dew Point Humidity Pressure Visibility Wind Dir Wind Speed Gust Speed Precip Events Conditions
12:53 AM 55.9 °F - 46.9 °F 72% 29.74 in 10.0 mi South 24.2 mph 32.2 mph N/A   Overcast
1:53 AM 55.9 °F - 48.0 °F 75% 29.71 in 10.0 mi South 21.9 mph 29.9 mph N/A   Overcast
2:53 AM 55.9 °F - 48.0 °F 75% 29.64 in 10.0 mi South 28.8 mph 38.0 mph N/A   Overcast
3:53 AM 53.1 °F - 51.1 °F 93% 29.64 in 5.0 mi SSW 24.2 mph 29.9 mph 0.15 in Rain Rain
4:30 AM 52.0 °F - 52.0 °F 100% 29.68 in 2.5 mi WSW 27.6 mph 36.8 mph 0.21 in Rain Heavy Rain
4:34 AM 51.1 °F - 50.0 °F 96% 29.68 in 3.0 mi West 25.3 mph 36.8 mph 0.22 in Rain Rain
4:53 AM 50.0 °F - 46.9 °F 89% 29.71 in 10.0 mi WSW 27.6 mph 41.4 mph 0.24 in Rain Light Rain
5:53 AM 48.0 °F - 43.0 °F 83% 29.72 in 10.0 mi SW 12.7 mph - 0.03 in   Overcast
6:53 AM 46.9 °F - 43.0 °F 86% 29.72 in 10.0 mi South 15.0 mph - N/A   Scattered Clouds
7:53 AM 48.9 °F - 44.1 °F 83% 29.73 in 10.0 mi SSW 16.1 mph 24.2 mph N/A   Overcast
8:53 AM 48.9 °F - 43.0 °F 80% 29.74 in 10.0 mi SSW 20.7 mph 31.1 mph N/A   Overcast
9:53 AM 48.9 °F - 44.1 °F 83% 29.72 in 10.0 mi South 18.4 mph - 0.00 in   Overcast
10:23 AM 48.9 °F - 44.1 °F 83% 29.72 in 6.0 mi South 21.9 mph 28.8 mph 0.03 in Rain Light Rain
10:38 AM 48.0 °F - 45.0 °F 89% 29.71 in 4.0 mi South 24.2 mph 28.8 mph 0.06 in Rain Light Rain
10:53 AM 48.0 °F - 46.0 °F 93% 29.69 in 6.0 mi South 21.9 mph - 0.08 in Rain Light Rain
11:34 AM 48.0 °F - 46.9 °F 96% 29.69 in 2.5 mi WSW 16.1 mph - 0.06 in Rain Rain
11:41 AM 48.0 °F - 46.9 °F 96% 29.67 in 2.0 mi SW 15.0 mph 24.2 mph 0.09 in Rain Rain
11:45 AM 46.9 °F - 46.9 °F 100% 29.67 in 3.0 mi SW 10.4 mph 24.2 mph 0.09 in Rain Light Rain
11:53 AM 46.9 °F - 46.9 °F 100% 29.68 in 7.0 mi SW 12.7 mph - 0.09 in Rain Light Rain
12:05 PM 48.0 °F - 48.0 °F 100% 29.68 in 2.5 mi SW 11.5 mph 21.9 mph 0.05 in Rain Light Rain
12:12 PM 48.0 °F - 48.0 °F 100% 29.68 in 6.0 mi West 10.4 mph - 0.06 in Rain Light Rain
12:53 PM 48.9 °F - 43.0 °F 80% 29.65 in 9.0 mi SSW 19.6 mph - 0.06 in Rain Light Rain
1:53 PM 48.9 °F - 44.1 °F 83% 29.64 in 10.0 mi SW 15.0 mph 28.8 mph 0.03 in   Overcast
2:53 PM 48.9 °F - 43.0 °F 80% 29.64 in 10.0 mi SW 23.0 mph 32.2 mph 0.01 in   Overcast
3:53 PM 46.9 °F - 46.0 °F 97% 29.67 in 10.0 mi SW 16.1 mph 31.1 mph 0.02 in Rain Light Rain
4:53 PM 46.0 °F 38.5 °F 41.0 °F 83% 29.70 in 10.0 mi WSW 19.6 mph 31.1 mph 0.03 in Rain Light Rain
5:53 PM 46.0 °F 39.0 °F 42.1 °F 86% 29.74 in 7.0 mi WSW 17.3 mph 27.6 mph 0.03 in Rain Light Rain
6:53 PM 46.0 °F 40.2 °F 39.9 °F 79% 29.81 in 10.0 mi West 12.7 mph 27.6 mph 0.01 in Rain Light Rain
7:53 PM 45.0 °F 37.4 °F 41.0 °F 86% 29.86 in 8.0 mi SW 18.4 mph 24.2 mph 0.01 in Rain Light Rain
8:53 PM 46.0 °F 39.0 °F 41.0 °F 83% 29.92 in 10.0 mi SW 17.3 mph 24.2 mph 0.01 in Rain Light Rain
9:53 PM 45.0 °F 37.9 °F 42.1 °F 90% 29.98 in 4.0 mi WSW 16.1 mph - 0.07 in Rain Rain
10:53 PM 46.0 °F 39.0 °F 41.0 °F 83% 30.02 in 10.0 mi West 17.3 mph 26.5 mph 0.03 in   Mostly Cloudy
11:53 PM 46.9 °F - 37.0 °F 68% 30.06 in 10.0 mi West 20.7 mph 32.2 mph N/A   Clear